Estación de Colegual INIA
Ultimos registro cada 15 minutos 41
| N° | Estación | Fecha / Hora | Temperatura | Humedad | Lluvia | Velocidad | Dirección | Radiación | Presion |
| 41 | Colegual INIA | 09-05-2026 10:00 | 6 | 91,6 | 0 | 0 | 0 | 237 | 1008 |
| 40 | Colegual INIA | 09-05-2026 09:45 | 4,9 | 95,7 | 0 | 0 | 0 | 196 | 1008 |
| 39 | Colegual INIA | 09-05-2026 09:30 | 3,8 | 98,8 | 0 | 0 | 0 | 172 | 1008 |
| 38 | Colegual INIA | 09-05-2026 09:15 | 2,6 | 99,7 | 0 | 0 | 0 | 141 | 1008 |
| 37 | Colegual INIA | 09-05-2026 09:00 | 2,5 | 98,6 | 0 | 0 | 0 | 121 | 1008 |
| 36 | Colegual INIA | 09-05-2026 08:45 | 1,6 | 100 | 0,1 | 0 | 0 | 109 | 1008 |
| 35 | Colegual INIA | 09-05-2026 08:30 | 0,8 | 100 | 0 | 0 | 0 | 64 | 1008 |
| 34 | Colegual INIA | 09-05-2026 08:15 | 0,1 | 100 | 0 | 0 | 0 | 21 | 1008 |
| 33 | Colegual INIA | 09-05-2026 08:00 | -0,9 | 100 | 0 | 0 | 339 | 6 | 1008 |
| 32 | Colegual INIA | 09-05-2026 07:45 | -0,6 | 100 | 0 | 0 | 0 | 2 | 1008 |
| 31 | Colegual INIA | 09-05-2026 07:30 | -0,2 | 100 | 0 | 0 | 0 | 0 | 1008 |
| 30 | Colegual INIA | 09-05-2026 07:15 | -0,6 | 100 | 0 | 0 | 1 | 0 | 1008 |
| 29 | Colegual INIA | 09-05-2026 07:00 | -0,6 | 100 | 0 | 0 | 0 | 0 | 1008 |
| 28 | Colegual INIA | 09-05-2026 06:45 | -1,1 | 100 | 0 | 0 | 49 | 0 | 1008 |
| 27 | Colegual INIA | 09-05-2026 06:30 | -1 | 100 | 0 | 0 | 134 | 0 | 1008 |
| 26 | Colegual INIA | 09-05-2026 06:15 | -0,8 | 100 | 0 | 0 | 0 | 0 | 1008 |
| 25 | Colegual INIA | 09-05-2026 06:00 | -0,4 | 100 | 0 | 0 | 305 | 0 | 1008 |
| 24 | Colegual INIA | 09-05-2026 05:45 | -0,4 | 100 | 0 | 0 | 290 | 0 | 1008 |
| 23 | Colegual INIA | 09-05-2026 05:30 | -0,3 | 100 | 0 | 0 | 6 | 0 | 1009 |
| 22 | Colegual INIA | 09-05-2026 05:15 | -0,6 | 100 | 0 | 0 | 0 | 0 | 1009 |
| 21 | Colegual INIA | 09-05-2026 05:00 | -0,4 | 100 | 0 | 0 | 0 | 0 | 1009 |
| 20 | Colegual INIA | 09-05-2026 04:45 | -0,5 | 100 | 0 | 0 | 110 | 0 | 1008 |
| 19 | Colegual INIA | 09-05-2026 04:30 | 0,1 | 99,7 | 0 | 0 | 0 | 0 | 1009 |
| 18 | Colegual INIA | 09-05-2026 04:15 | 0 | 100 | 0 | 0,2 | 304 | 0 | 1009 |
| 17 | Colegual INIA | 09-05-2026 04:00 | -0,2 | 100 | 0 | 0 | 239 | 0 | 1009 |
| 16 | Colegual INIA | 09-05-2026 03:45 | 0,6 | 99,8 | 0 | 0 | 260 | 0 | 1009 |
| 15 | Colegual INIA | 09-05-2026 03:30 | 0,4 | 100 | 0 | 0 | 0 | 0 | 1009 |
| 14 | Colegual INIA | 09-05-2026 03:15 | 0,7 | 100 | 0 | 0 | 17 | 0 | 1009 |
| 13 | Colegual INIA | 09-05-2026 03:00 | 0,6 | 99,9 | 0 | 0,1 | 96 | 0 | 1009 |
| 12 | Colegual INIA | 09-05-2026 02:45 | 1 | 99,4 | 0 | 0 | 0 | 0 | 1009 |
| 11 | Colegual INIA | 09-05-2026 02:30 | 1,3 | 99,2 | 0 | 0 | 0 | 0 | 1009 |
| 10 | Colegual INIA | 09-05-2026 02:15 | 1,2 | 99,6 | 0 | 0 | 8 | 0 | 1009 |
| 9 | Colegual INIA | 09-05-2026 02:00 | 1,2 | 99,3 | 0 | 0 | 0 | 0 | 1009 |
| 8 | Colegual INIA | 09-05-2026 01:45 | 1,7 | 98,8 | 0 | 0 | 71 | 0 | 1009 |
| 7 | Colegual INIA | 09-05-2026 01:30 | 1,7 | 99 | 0 | 0 | 102 | 0 | 1009 |
| 6 | Colegual INIA | 09-05-2026 01:15 | 1,6 | 98,1 | 0 | 0 | 0 | 0 | 1009 |
| 5 | Colegual INIA | 09-05-2026 01:00 | 2,6 | 97,8 | 0 | 0 | 0 | 0 | 1009 |
| 4 | Colegual INIA | 09-05-2026 00:45 | 2,4 | 98,3 | 0 | 0 | 0 | 0 | 1009 |
| 3 | Colegual INIA | 09-05-2026 00:30 | 2,6 | 97,2 | 0 | 0 | 0 | 0 | 1009 |
| 2 | Colegual INIA | 09-05-2026 00:15 | 3,5 | 96,8 | 0 | 0 | 88 | 0 | 1009 |
| 1 | Colegual INIA | 09-05-2026 00:00 | 3,3 | 97,6 | 0 | 0 | 64 | 0 | 1010 |